Wall of Fame

Het Mysterie van de Haven

Groepsnaam Tijd over Aantal hints
1 Jacobs 01:32:43 1
2 Zegwat 01:11:13 6
3 Malestein 01:10:20 0
4 Bijna sexy 01:09:12 0
5 Toevankjes 01:08:34 1
6 Majomiri 01:07:15 0
7 autobuddys 01:06:54 0
8 Vogelbuurt 01:05:09 0
9 Blekbal 01:04:20 4
10 Bestuur Panacea 2018 01:03:41 0
11 Vivino's 01:02:35 0
12 Da potato family 01:00:30 3
13 De Flitsmeisters 01:00:23 1
14 Mulder en co 00:59:57 0
15 SmartBarth 00:59:09 0
16 TOG op pad 00:58:30 0
17 Bull 00:56:18 0
18 De Noorderlingen 2 00:55:27 2
19 The Turning Bitches 00:55:15 0
20 De withaartjes 00:54:37 0
21 Jozuahaaltdesnacks 00:54:18 0
22 Spruitjes 00:54:06 1
23 DeKraaien 00:52:45 0
24 Gilse Club 00:52:27 3
25 Bruggies 00:52:04 2
26 MAK Search Team 00:51:54 1
27 VEM 00:51:36 2
28 The Black Purrrr 00:51:21 3
29 Marina's Bultjes 00:50:37 0
30 Rijn 00:49:57 3
31 Commissaris Blauw 32 00:49:54 0
32 De Leo’s 00:49:40 0
33 Clown Kees 00:49:35 0
34 De wilde Vaart 00:48:42 0
35 Teddje 00:48:10 2
36 Bolk 00:48:03 0
37 Spijkerrevanche 00:47:45 7
38 zalk 00:46:57 2
39 Team Rijnsburg 00:46:50 0
40 Tukkers Nieland 00:46:41 1
41 GreenDucks 00:46:32 2
42 The Escapistaches 00:46:30 0
43 Doarseveld 00:46:14 3
44 De avocado's 00:46:01 1
45 FC RISC 00:45:56 0
46 De Engeltjes 00:45:45 3
47 Hazelnootjes 00:45:06 0
48 De Nachtbrakers 00:44:54 1
49 HoogeVenlo 00:44:39 2
50 Hsj 00:44:29 10
51 TeamXBeks 00:44:25 5
52 M&M 00:43:52 3
53 De van der Bentjes 00:43:50 7
54 te pakk'n 00:43:47 0
55 Met z'n biertjes 00:43:27 0
56 Boekenpootje 00:43:18 1
57 De Akkermannen 00:43:13 1
58 Wenterse genieters 00:42:42 1
59 De drie koffieriers 00:42:42 1
60 Zijlmaatjes 00:42:27 4
61 Koeienlovers 00:41:43 2
62 De dikke bankzitters 00:41:42 4
63 Bungalow Xxx 00:41:41 0
64 De wijsneuzen 00:41:29 1
65 Caljé 00:41:20 5
66 Groepje 00:40:58 2
67 MvAVermaak.nl 00:40:53 1
68 De Strikwerda's 00:40:52 3
69 Team Detective 00:40:46 0
70 Paashaas 00:40:31 5
71 Familyfuntime 00:40:04 1
72 Bro’s before ho’s 00:40:03 0
73 The Jaggermen 00:39:55 0
74 ThoJo 00:39:47 2
75 SiJiSen 00:39:15 1
76 De sjeezers 00:39:11 1
77 Witte Wieven 00:39:10 0
78 Hokkie's 00:39:09 1
79 Goutier 00:38:48 1
80 Nijzinkbende 00:38:47 6
81 ReSuNo 00:38:32 0
82 hartogjes 00:38:15 2
83 Chicks b4 dicks 00:37:39 1
84 Kroontjes 00:37:35 0
85 Team de Vrueh 00:36:54 3
86 Framily 00:36:50 3
87 TeamTeunis 00:36:47 2
88 Boevee 00:36:36 3
89 De Dekkertjes 00:36:11 1
90 Captains Hoekstra 00:36:01 0
91 Newcourts 00:36:01 3
92 Louise & Mike 00:35:54 10
93 De waalie 00:35:52 3
94 De Hurms 00:35:38 1
95 De domme koeien 00:35:36 0
96 GBMans 00:35:32 1
97 Schapenkoppen 00:35:06 2
98 Bouwhuisjes+oma 00:35:01 0
99 Harte-Spijker 00:34:59 7
100 poel 00:34:50 3
101 De koele koes 00:34:42 4
102 De zwemmende eendjes 00:34:33 1
103 Nijpjes 00:34:27 12
104 DeBeren 00:34:09 4
105 SMTL 00:34:08 1
106 Majiti's 00:33:58 4
107 Oordjes 00:33:58 5
108 NPGvanDiemers 00:33:56 2
109 110 00:33:53 4
110 De Krakers 00:33:53 2
111 Warlegganteam NL 00:33:52 1
112 Team Ellende 00:33:49 3
113 Breaking Out 00:33:48 1
114 Niet te kisten 00:33:46 1
115 Puttenaren 00:33:44 2
116 The Streamers 00:33:38 9
117 Heemskerk 00:33:17 9
118 de huismerels 00:33:11 7
119 B100 00:32:57 0
120 Niet erg creatief 00:32:52 3
121 Toverdoosje 00:32:45 0
122 Bremmertjes 00:32:35 4
123 De zusters van BertJaap 00:32:32 2
124 Zwannies 00:32:27 5
125 TEMPVERM 00:32:16 6
126 Tishol 00:32:12 2
127 BadHairDay 00:32:02 1
128 Dewestfriezen 00:31:54 7
129 De Groene Buizerd 00:31:52 0
130 Sinqo H 00:31:44 3
131 De bijtjes🐝 00:31:34 11
132 De kwade vliegjes 00:31:32 2
133 The Highlanders 00:31:27 8
134 de Baaijvlaaiers 00:31:23 1
135 Vondertjes 00:31:20 0
136 De suppers ut Fryslan 00:31:12 6
137 De Keels 00:31:04 0
138 Symaes en Vander Linden 00:30:57 8
139 Jong&co 00:30:56 1
140 love box 00:30:48 0
141 Vrijspeciaal 00:30:45 1
142 Team 63 00:30:41 4
143 De hunebedden 00:30:23 0
144 De GilseSchans 00:30:20 7
145 Bellista 00:30:19 2
146 Familie Bolte 00:30:09 0
147 Gezellig 00:30:04 4
148 De pronkies 00:30:02 10
149 Christel60 00:30:02 4
150 Uniekegroep 00:30:02 3
151 Lala 00:29:58 6
152 Animatieteam kuierpad + Roderick en Niek 00:29:55 1
153 Team bollo 00:29:53 0
154 Perdokkies 00:29:44 2
155 Non-Sukkies 00:29:43 5
156 De bende 00:29:37 8
157 Verploegies&Smilo 00:29:36 4
158 31ALPHA 00:29:32 2
159 De Snuggles 00:29:29 5
160 InvestigationCheck 00:29:10 0
161 Binkies 00:28:35 8
162 De Konings 00:28:28 3
163 Lilydora 00:28:26 3
164 Chickies & Jordy 00:28:25 4
165 De Zilvervloot 00:28:15 1
166 Coronettes 00:28:15 2
167 Huipies 00:28:08 5
168 Dijkstra 00:28:05 4
169 Tante Sjaan 00:28:03 3
170 MeijHutje 00:28:00 6
171 BeMaiWil 00:27:53 1
172 Segersen 00:27:47 2
173 zooitje ongeregeld 00:27:36 4
174 Sirolf21 00:27:36 1
175 Hotties 00:27:34 3
176 Limi 00:27:31 2
177 De Hottub 00:27:28 7
178 Kuipertjes😎 00:27:21 0
179 Ysbekkies 00:27:13 3
180 Boerhof 00:27:06 0
181 Schipper family 00:26:58 2
182 Faasjes 00:26:56 5
183 Havenhunters 00:26:55 8
184 Ome Jan 00:26:54 2
185 C&C 00:26:50 3
186 Wildenbeest 00:26:25 8
187 Helder 00:26:21 3
188 De Nijboertjes 00:26:13 4
189 Fam.Intveen 00:26:08 1
190 Op de camping! 00:26:07 3
191 De Nicolaaitjes 00:25:59 7
192 Alphen45 00:25:57 0
193 Ma Flodder 00:25:53 1
194 De Vippies 00:25:53 1
195 De Bellies 00:25:51 3
196 Coole gang 00:25:47 4
197 Aa 00:25:31 11
198 Balkum de gekste 00:25:28 1
199 De Smurfen 00:25:23 3
200 De Klagerjasclub 00:25:22 5
201 Onderzoekers 00:25:20 1
202 De abners 00:25:08 0
203 Hendrik IV 00:25:04 0
204 De arme stakkers 00:25:04 0
205 VanDeNoodEenDeugd 00:24:50 5
206 Braamkes 00:24:43 1
207 Du Lange 00:24:28 3
208 Maaskantjes 00:24:27 1
209 Kamer 237 00:24:17 9
210 ReRe 00:24:11 2
211 Dongdong 00:24:02 3
212 de Japies 00:23:59 9
213 HACKERS 00:23:50 5
214 Berend botje 00:23:48 7
215 De Enkellikkers 00:23:46 0
216 Efawasa 00:23:43 7
217 Fang gang 00:23:41 5
218 De Heidi’s 00:23:26 9
219 Njord 00:23:26 5
220 Guardians of the galaxy 00:23:07 4
221 De B.O-veld bende 00:23:06 1
222 Chicka’s uit Twente 00:22:58 2
223 The bomb 00:22:51 0
224 Faijdherbe 00:22:45 6
225 Kolkman! 00:22:44 11
226 De rare langers 00:22:40 3
227 Joke's posse 00:22:38 1
228 Leidyk 00:22:36 2
229 Eisco's 00:22:36 2
230 Liever te dik in de kist 00:22:31 1
231 Bikkers 00:22:23 4
232 Linda & Martin 00:22:23 4
233 Superspeurders 00:22:13 8
234 Vinkman 00:22:09 7
235 Wei 00:22:08 3
236 Boschwachters 00:22:00 3
237 Westra 00:21:56 3
238 Langkawi 2 00:21:55 2
239 Taksi chauffeur 00:21:54 3
240 Compleet 00:21:43 1
241 SjaMaPaCa 00:21:31 2
242 Bartje 00:21:24 3
243 Kesseltjes 00:21:23 1
244 Spijkermannetjes 00:21:19 11
245 Bart en Miriam 00:21:19 1
246 Waterpolitie 010 00:21:13 2
247 Teamwork kuierpad 00:21:12 12
248 Jomomabastis 00:21:10 4
249 Casa Peters 00:21:08 2
250 Bende van ellende 00:21:05 3
251 De Wiergo’s 00:21:05 3
252 Hioany 00:21:02 5
253 Hut(s) 321 00:20:59 6
254 Fonsie 00:20:57 5
255 DjesModz 00:20:51 12
256 KatrienDuckies 00:20:45 3
257 Van Tienen 00:20:45 1
258 Bibimbap 00:20:41 1
259 Niensel 00:20:40 1
260 Smelikjes 00:20:40 1
261 Kwibus&co 00:20:39 1
262 DIJAMERK 00:20:37 6
263 Strating 00:20:36 2
264 Verheugen 00:20:33 4
265 Bossche Bollen 00:20:31 8
266 Sijmons en co 00:20:30 5
267 High Elbow 00:20:30 1
268 Burgertjes 00:20:29 8
269 JJC en mama’s 00:20:26 9
270 De 4 biggetjes 00:20:11 0
271 Hamoen 00:20:09 4
272 Tokkie’s 00:19:59 12
273 Smits 00:19:58 2
274 Happy campers 00:19:53 3
275 Booem 00:19:49 0
276 TIKTOKSQUAD 00:19:45 4
277 Fam Havering 00:19:44 1
278 202 00:19:37 2
279 Mulletjes 00:19:35 3
280 Buurtjes!! 00:19:33 0
281 Alle ballen op Royston 00:19:26 5
282 Wesseltjes 00:19:24 1
283 Piraten 00:19:18 5
284 De grote Kak 00:19:09 0
285 Voyageurs 00:19:03 1
286 Stresskippen 00:19:02 9
287 Rendiertjes 00:18:58 1
288 Dallies 00:18:56 6
289 Carr 00:18:33 2
290 De Hermsehuis band 00:18:32 0
291 FC Pannenkoek 00:18:29 4
292 Zus en co 00:18:28 3
293 Wijker 00:18:28 7
294 the mirrors 00:18:26 5
295 MIRACA 00:18:24 3
296 De Boertjes 00:18:06 4
297 De puzzelaars 00:18:05 5
298 Beerze Rangers 00:17:50 2
299 DeVuggies5 00:17:47 9
300 peter en de koele kikkers 00:17:35 4
301 VandeRegen 00:17:33 4
302 Dejegerdingentjes 00:17:30 1
303 Lekkende balonnen 00:17:29 8
304 Poldermannen 00:17:28 0
305 Fanatiekelingen 00:17:21 3
306 D3Musketiers 00:17:17 1
307 Kinderman 00:17:17 2
308 Schut 00:17:14 0
309 DE RORO'S 00:17:13 3
310 Sikking 00:17:09 8
311 Koerselman 00:17:09 3
312 De 3 zoetjes 00:17:08 1
313 Bruss-apen 00:17:07 1
314 JCL 00:16:56 11
315 Reddingsboeien 00:16:49 4
316 Warm 00:16:47 5
317 Peters 00:16:43 3
318 Raatelandjes 00:16:34 2
319 Kuuperties 00:16:33 4
320 Knibbelby 00:16:31 1
321 Tjommie 00:16:31 7
322 de Steentjes 00:16:27 2
323 Ruitertjes 00:16:13 0
324 Beilerbofkontjes 00:15:58 3
325 Oefoefoe’s 00:15:57 9
326 Reigâh 00:15:53 0
327 Tinyhousegang 00:15:49 10
328 Team Tuinbank 00:15:48 2
329 #Besties 00:15:47 0
330 Boze Belgen 00:15:47 2
331 SterrenWorst 00:15:39 12
332 Galenkamp 00:15:39 2
333 De Wellentjes 00:15:27 0
334 de Graaf 00:15:25 11
335 Ava 00:15:21 5
336 Koele klippers 00:15:19 6
337 B-722 00:15:16 6
338 Aikes 00:15:15 3
339 The big 6 00:15:15 2
340 De Teuters 00:15:12 2
341 Familie Vermeer 00:15:11 1
342 Poeremetator 00:15:11 3
343 Charlie 00:15:08 2
344 van Leeuwen Prutsers 00:15:05 4
345 Sneekjes 00:15:05 4
346 klavertjevier 00:15:01 8
347 NOXOLOGEN 00:14:58 1
348 Bobingas 00:14:51 5
349 JanEnSophie 00:14:47 3
350 Team Floepie 00:14:41 3
351 208ers 00:14:35 2
352 De Raatgevers weten raad 00:14:35 2
353 Paco 00:14:32 2
354 Frandré 00:14:32 2
355 Dombos 00:14:31 3
356 WarSpoor 00:14:29 3
357 Jongdek 00:14:26 3
358 Fultonstraat 00:14:26 3
359 Plukkestijn 00:14:22 1
360 Girl power 00:14:17 4
361 DDMTJ 00:14:14 3
362 Burger 00:14:11 2
363 033 00:14:11 9
364 Team Roderick 00:14:10 1
365 Klamer 00:14:04 0
366 Haringkoppen 00:13:55 4
367 Otters 00:13:48 4
368 Lisan 00:13:44 5
369 Pansier 00:13:40 8
370 De Pansyhansy's 00:13:38 2
371 Bevers 00:13:38 10
372 Tutti 00:13:37 5
373 M&L 00:13:30 2
374 De Steentjes 00:13:17 7
375 De Ketraket 00:13:11 4
376 007 00:13:09 1
377 De Kassies 00:13:08 6
378 De vier vosjes 00:12:57 1
379 Heijden 00:12:54 2
380 #TeamZuurkool 00:12:54 6
381 Jacku 00:12:53 3
382 De Snelle Bananen 00:12:41 5
383 Sissies 00:12:36 6
384 Lammetjes 00:12:36 4
385 VersluisRotterdam 00:12:30 1
386 Aapie&draakie 00:12:29 1
387 De winnaars 00:12:28 6
388 Janjansendekinderen 00:12:26 3
389 Ellerbroekies 00:12:23 1
390 Halimaanrilote 00:12:22 2
391 Team Pony 00:12:21 3
392 Wognumse faalhazen 00:12:16 6
393 The perfect mix 00:12:11 3
394 Postomaatjes 00:12:11 3
395 blokdinnies 00:12:06 7
396 Kwakkenvos 00:12:04 3
397 List & bedrog 00:12:02 2
398 van Bodegraven 00:12:00 12
399 escapies 00:11:57 5
400 Mulderinho's 00:11:57 4
401 Ezelstad 00:11:55 3
402 Pull My Finger 00:11:54 2
403 De Vogelaartjes 00:11:45 7
404 Fam Smit 00:11:37 2
405 De F16s 00:11:36 1
406 Kruisjes 00:11:27 8
407 Gento’s 00:11:23 2
408 Druktemakers 00:11:22 2
409 Wietse en Els 00:11:22 4
410 Witte Wijfjes 00:11:20 1
411 De Kamelenrijders 00:11:16 2
412 DonenMaris 00:11:11 2
413 Groep 5 00:11:08 12
414 Berend Botje 666 00:11:06 2
415 PLAETENAEREN 00:11:03 6
416 Bouwmeester 00:11:01 3
417 CasadelGancho 00:10:53 3
418 De Plekkenpolletjes 00:10:53 7
419 the Rabbits 00:10:50 5
420 Lm 00:10:48 4
421 DeJagerz 00:10:47 5
422 Nieuwehuisjes 00:10:43 6
423 JETI 00:10:38 6
424 Kruitjes 00:10:35 1
425 Aardappelen in blik 00:10:35 4
426 Tollies 00:10:35 5
427 Caittaathalathal 00:10:31 0
428 Fan Flodder 00:10:28 1
429 Schipsep 00:10:26 0
430 MiranChris 00:10:21 2
431 De Boerkes 00:10:19 2
432 Houtense Hunters 00:10:16 2
433 Oons moe 00:10:15 2
434 The gold diggers 00:10:08 4
435 hippoo en kikker 00:10:02 4
436 F.L.A.M. 00:10:01 2
437 De Machies 00:09:54 7
438 C&A 00:09:49 2
439 Jongkies 00:09:38 5
440 AltUndNeu 00:09:33 12
441 Rema 00:09:32 2
442 Harmsie 00:09:30 5
443 Velema 00:09:27 0
444 De kampioenen 00:09:26 1
445 Stollies 00:09:22 1
446 Outjes 00:09:18 2
447 TukTuks 00:09:13 2
448 LUKENS 00:09:11 7
449 Hendriksen 00:08:53 1
450 Meulenrabbitmeer 00:08:50 4
451 Inspector Gadget 2.0 21 00:08:50 3
452 Foute gasten 00:08:43 2
453 Flanellen Willetje 00:08:38 5
454 Bollo Fanclub 00:08:37 4
455 Dipshitties 00:08:30 5
456 Vredenbregt 00:08:30 4
457 MWSK 00:08:28 8
458 Slowliving 00:08:28 2
459 speurneusjanssen 00:08:22 4
460 Pip&Puk 00:08:17 8
461 Team kist 00:08:14 1
462 Jens is jarig 00:08:14 8
463 Sasjormad 00:08:07 11
464 De struis 00:08:03 9
465 Kaaijts 00:08:03 3
466 DeKrakers 00:08:02 4
467 Fundering 00:07:59 6
468 Peter is Beter 00:07:43 0
469 Welling 00:07:41 1
470 Hoi 00:07:40 2
471 Westerhaar1 00:07:37 0
472 Dory 00:07:37 7
473 Agent109 00:07:35 10
474 kapiteinLieke 00:07:33 4
475 De van Opstalletjes 00:07:33 6
476 Stelma 00:07:31 11
477 Arkeeijks 00:07:26 2
478 Hoofdkantoor vlinder 2 00:07:24 10
479 Louwtjes 00:07:22 2
480 Alpaca 00:07:20 7
481 Groep Awkward 00:07:18 0
482 Kaasknabbeltjes 00:07:12 5
483 Koenen-gang 00:07:09 5
484 Lana’s chicks 00:07:03 3
485 De bende van Oss 00:07:01 8
486 LiefAmmy 00:07:01 12
487 Oetje toetjes 00:07:01 2
488 De bomhofjes/Vijgjes 00:07:00 6
489 Kromkamp 00:06:55 0
490 BUL 00:06:51 9
491 Wieggers433 00:06:47 8
492 Pirates of carrabean 00:06:41 9
493 Annemijn slaapt 00:06:41 6
494 Joost mag het weten 00:06:38 7
495 MaNaTiLiLa 00:06:36 4
496 twee keer rechts een keer links 00:06:36 0
497 Stoere fase 00:06:35 4
498 Kootjes 00:06:23 5
499 Cor's angels 00:06:21 8
500 The Escape Artists 00:06:17 2
501 BOLLO 00:06:13 3
502 De Waardtjes met Appel 00:06:11 3
503 Barney's 00:06:08 7
504 Schaapjes 00:06:07 3
505 YOUPIE 00:06:06 6
506 Zwahili 00:06:06 0
507 Boumaatjes 00:06:05 12
508 BiZunder 00:06:00 5
509 Simmerdeis 00:05:56 4
510 Van Bollies 00:05:51 4
511 De Starke 5 00:05:47 5
512 Blokkies 00:05:45 12
513 wintersportsmall 00:05:42 5
514 ‘n Krul 00:05:29 0
515 Vugts 00:05:25 3
516 Feestje72 00:05:24 5
517 Rcn 00:05:18 1
518 De smikkelbeertjes 00:05:02 6
519 Dubbelsafe 00:04:54 4
520 Wasbo’s 00:04:51 5
521 HugodeGroot 00:04:48 1
522 Het mysterie van de haven 00:04:43 1
523 Wurffies 00:04:42 4
524 Steenberg 00:04:39 11
525 JIPST 00:04:38 3
526 HR LHPO 00:04:31 0
527 Buffels 00:04:27 9
528 rudolf de king 00:04:21 4
529 Dekcheng 00:04:19 3
530 De Voorsluijsjes 00:04:19 9
531 sewtahani 00:04:18 10
532 deGraaf 00:04:16 12
533 Kokshoorn 00:04:11 4
534 The Secret Hunters 00:04:11 4
535 Berk 00:04:05 5
536 Detectives Die en Buh 00:04:02 1
537 De Valkies 00:03:56 8
538 De Schippers 00:03:55 5
539 Klabbertjes 00:03:54 4
540 Moltman 00:03:52 1
541 Kreekies 00:03:48 8
542 Pouweltjes 00:03:43 3
543 fam.Roeling 00:03:34 2
544 Van Triggies 00:03:33 8
545 bijlkooten 00:03:32 11
546 Klaar weer... 00:03:32 0
547 The Clue Crew 00:03:29 4
548 LR 00:03:28 11
549 De Eekhoorntjes 00:03:23 5
550 Nelson Mandela 00:03:21 1
551 Kapitein Onderbroek 00:03:09 4
552 Amendt 00:03:07 12
553 Snoensels 00:03:05 0
554 BultEef 00:03:02 4
555 Papagaai61 00:02:59 4
556 Berg 00:02:58 12
557 Nachtuiltjes 00:02:58 4
558 Team Putten 00:02:58 5
559 Escape Derckies 00:02:52 3
560 De Tebbertjes 00:02:47 3
561 Hilau 00:02:46 2
562 TJMS 00:02:45 8
563 203 00:02:42 4
564 Kleine Ijsbeer 00:02:31 5
565 Misty en de Detectives 00:02:26 7
566 De Reddertjes 00:02:23 8
567 De Dikkels 00:02:23 3
568 403 00:02:23 7
569 Ouwerkerkjes 00:02:23 4
570 De broemende Gerrie's 00:02:20 7
571 Penning 00:02:19 6
572 De slimme vogels 00:02:18 10
573 Buithorst 00:02:09 11
574 Thomas2.0 00:02:02 6
575 De Boompiepers 00:02:02 3
576 Klein Wassink 00:02:02 3
577 de beste lammies 00:01:58 0
578 LEFF 00:01:51 5
579 Van Dijk 00:01:42 3
580 Possie 00:01:31 4
581 ZIGGYS GANG 00:01:30 12
582 T L Koef 00:01:28 4
583 Bakvissen 00:01:27 11
584 5 Musketiers 00:01:25 7
585 The final braincell 00:01:22 8
586 Joep & Co 00:01:22 5
587 De Nollies 00:01:19 4
588 De Grimmies 00:01:18 3
589 Kooijtjes 00:01:17 2
590 De Familie Leeuwen 00:01:06 10
591 De Fidders 00:01:05 4
592 SmiemiesDenHaag 00:01:02 6
593 Soesclub 00:01:01 10
594 Hemelvaart2021 00:01:01 5
595 plasjes 00:00:55 5
596 Gommers 00:00:40 4
597 Sjan 00:00:38 4
598 VBK 00:00:37 6
599 HuisjesCol 00:00:29 8
600 Piratenhiernaast 00:00:28 12
601 Drie musketiers 00:00:26 5
602 De Wielies! 00:00:26 4
603 sas en mark 00:00:13 1
604 De salamanders 00:00:11 3
605 Grolsch United 00:00:07 5
606 Taeko’s 00:00:07 4
607 Flodders 00:00:04 8
608 Smeerkerkies 00:00:03 2
609 Betty en patty 00:00:00 10
610 Piraten 00:00:00 8
611 Elpies 00:00:00 11
612 Team Valerie 00:00:00 3
613 Langeberg 00:00:00 5
614 3 coolste BFF’S 00:00:00 7
615 Sherlock Hoos 00:00:00 4
616 Dream team 00:00:00 3
617 Roversbende 00:00:00 7
618 Depoep 00:00:00 6
619 Huisje305 00:00:00 7
620 De smints 00:00:00 8
621 Kloostertjes 00:00:00 12
622 The Jacobs Family 00:00:00 7
623 Sharks 00:00:00 4
624 Het is gezelliger zonder joey en tom 00:00:00 0
625 KWEC 00:00:00 10
626 SUSSYBAKA's 00:00:00 2
627 Hovestadjes 00:00:00 10
628 Berkstok 00:00:00 3
629 Benkies 00:00:00 10
630 Spruitjes4724 00:00:00 3
631 Koekoek 00:00:00 6
632 Wijnland 00:00:00 5
633 Robbedoes & Co 00:00:00 5
634 2gether 00:00:00 6
635 Boda 00:00:00 4
636 Arends 00:00:00 8
637 Team Megchelen 00:00:00 6
638 Van Marion 00:00:00 8
639 Team krab 00:00:00 12
640 C 00:00:00 4
641 Escape Squad 00:00:00 11
642 Ummy gang 00:00:00 5
643 Bafaar 00:00:00 5
644 Smarties 00:00:00 2
645 De Sminkjes 00:00:00 9
646 lolmans 00:00:00 8
647 Bakx 00:00:00 2
648 aerdts 00:00:00 3
649 Zijlstra Bolsward 00:00:00 8
650 De Paupers 00:00:00 4
651 Dappere dodo 00:00:00 3
652 Kluijtjes 00:00:00 5
653 Vossen 00:00:00 12
654 Lasange 00:00:00 8
655 Vakantiegangers 00:00:00 2
656 Franken 00:00:00 7
657 De kraanvogels 00:00:00 8
658 De 402 club 00:00:00 8
659 Braampies 00:00:00 6
660 Voogies 00:00:00 12
661 De bonte ridders 00:00:00 8
662 Postjes 00:00:00 8
663 Snollebollekes 00:00:00 7
664 Team Babyballa 00:00:00 4
665 Sterrehiem 00:00:00 8
666 De Zwemmers 00:00:00 7
667 De Gibanelclub 00:00:00 4
668 Chaos 00:00:00 12
669 Het buikorakel 00:00:00 12
670 De Bergjes 00:00:00 7
671 De spijkerhaven 00:00:00 6
672 Maasjes 00:00:00 7
673 Rodel 00:00:00 10
674 De uitglijders 00:00:00 5
675 Radij 00:00:00 12
676 De oepies 00:00:00 7
677 Juffertjes 00:00:00 10
678 Stokxies 00:00:00 3
679 Luc 00:00:00 5
680 DieVanHuisje333 00:00:00 7
681 Speurs 00:00:00 9
682 Bruggen 00:00:00 9
683 De stoere codekrakers 00:00:00 6
684 Benbo 00:00:00 6
685 Het kan friezen het kan dooien 00:00:00 9
686 Kok-Duif 00:00:00 3
687 K2 00:00:00 7
688 Maatjes 00:00:00 6
689 VakantieClub99 00:00:00 12
690 Stone Squad 00:00:00 2
691 De inbrekers 00:00:00 10
692 Billy de hond 00:00:00 8
693 The Winners 00:00:00 7
694 nederend 00:00:00 12
695 De Bultjes 00:00:00 6
696 Veekenwintaltijd 00:00:00 10
697 Kaas 00:00:00 7
698 Manage Rensen 00:00:00 7
699 De twee musketiers 00:00:00 9
700 Bruinberg 00:00:00 4
701 De Gerrits 00:00:00 6
702 de dordtsche schappenkoppen 00:00:00 4
703 De wessels 00:00:00 10
704 Ijsvogel265 00:00:00 9
705 De Woutertjes 00:00:00 6
706 Team Kops 00:00:00 9
707 Oelewappers 00:00:00 5
708 Wiebeltenen 00:00:00 7
709 Team Kuipers 00:00:00 11
710 Brinknorg 00:00:00 5
711 Craats 00:00:00 8
712 The Bossies 00:00:00 11
713 De amigo's 00:00:00 5
714 Zusjes Huizer 00:00:00 6
715 Arie 00:00:00 8
716 De Melkjes 00:00:00 1
717 DJ Swiep 00:00:00 5
718 MVV Bro 00:00:00 10
719 Team MARIJEE050 00:00:00 6
720 Slimpe 00:00:00 10
721 Spelletjesgekken 00:00:00 1
722 GruitBlom176 00:00:00 12
723 Detectives Maij 00:00:00 7
724 Schmitties 00:00:00 6
725 De Bommeltjes 00:00:00 6
726 Stoffels 00:00:00 6
727 Pepsi 00:00:00 12
728 Auke 00:00:00 2
729 Blieje mollies 00:00:00 11
730 Koolmeesjes 00:00:00 11
731 De Vries 329 00:00:00 11
732 Floortjes4 00:00:00 11
733 Van Dalen 00:00:00 6
734 Klimmers min 1 00:00:00 8
735 Aardbeien 00:00:00 4
736 00:00:00 10
737 Captain SpackJarrow 00:00:00 6
738 Veenvell 00:00:00 11
739 veenvell 00:00:00 3
740 VanAken 00:00:00 7
741 Kechies 00:00:00 0
742 Snepvangers 00:00:00 9
743 Schneidertjes 00:00:00 0
744 LiFloSaMen 00:00:00 12
745 MoBaInRu 00:00:00 3
746 De Bolle Bollo’s 00:00:00 5
747 Schreursjes 00:00:00 12
748 Mystery M’s 00:00:00 8
749 Gezelligheid op Coldenhove 00:00:00 9
750 Meijer 00:00:00 0
751 Jaapenlusanne 00:00:00 10
752 De Coole Kippen 00:00:00 4
753 Plantebakjes 00:00:00 0
754 Spijker6 00:00:00 8
755 De-Bingo-Winners 00:00:00 7
756 Team Sneek 00:00:00 6
757 CasperDekkers! 00:00:00 7
758 Werffie's 00:00:00 4
759 De Super Pika’s 00:00:00 9
760 De stolkse boertjes 00:00:00 4
761 De 713-tjee 00:00:00 0
762 De Tuintjes 00:00:00 5
763 Team Lucas 00:00:00 3
764 hazelaar 00:00:00 8
765 Bakker 00:00:00 8
766 Team Gijs 00:00:00 10
767 Krukken 00:00:00 9
768 De Minnetjes 00:00:00 3
769 De eendjes 00:00:00 5
770 Brabo's 00:00:00 10
771 Koele Kikkers 00:00:00 11
772 De Ra BN ers 00:00:00 3
773 Bastiaansen 00:00:00 6
774 De Boompjes 00:00:00 0
775 Huiskampies 00:00:00 2
776 Loedermoeders 00:00:00 6
777 FriteRia 00:00:00 0
778 De emmy's 00:00:00 8
779 Bosaventuriers 00:00:00 12
780 GOONIENEE 00:00:00 4
781 Hazen & Wezels 00:00:00 3
782 Zinger-Reiber 00:00:00 9
783 Biggies 00:00:00 2
784 Partyanimals 00:00:00 0
785 Kanters 00:00:00 1
786 Goudou 00:00:00 4
787 42 00:00:00 10
788 Team-o 00:00:00 1
789 Familie ratjetoe 00:00:00 7
790 Dirven 00:00:00 5
791 Familie Betting 00:00:00 4
792 Josefien10 00:00:00 1
793 Malaga 00:00:00 2
794 Unlock 00:00:00 2
795 Team sombrero bos hé 00:00:00 5
796 Jo 00:00:00 3
797 8 BALL 00:00:00 6
798 Roel&Irma 00:00:00 3
799 De Ruchti's 00:00:00 6
800 SuperSanne 00:00:00 7
801 LPower 00:00:00 11
802 FLOVAR 00:00:00 5
803 Atz32 00:00:00 8
804 Kleef 00:00:00 7
805 Wolfslag 00:00:00 12
806 Bar & Jenn 00:00:00 8
807 Roelofsen&co 00:00:00 0
808 de Kwartels 00:00:00 1
809 The Black purrrrr 00:00:00 4
810 Team Sammie 00:00:00 3
811 Smitoverweghekmanpas 00:00:00 1
812 BB33 00:00:00 0
813 De lemelaars 00:00:00 6
814 Huisjes 00:00:00 7
815 The beagles 00:00:00 1
816 Wij laten ons niet kisten 00:00:00 1
817 Bussink Power 00:00:00 4
818 Odd squad 00:00:00 9
819 Goof&Co 00:00:00 3
820 Eijkjes 00:00:00 9
821 De krakers 00:00:00 10
822 Hollandscheveld 00:00:00 5
823 Het blauwe leger ESD 00:00:00 4
824 Hangover 4 00:00:00 3
825 Pro's 00:00:00 3
826 Team Smeets 00:00:00 7
827 Fromthemountain 00:00:00 2
828 Minkeisjarig 00:00:00 1
829 De beugels 00:00:00 5
830 De 9 musketiers 00:00:00 6
831 Portugaaltjes 00:00:00 5
832 Bartels 00:00:00 2
833 Bartels1 00:00:00 0
834 Vennik 00:00:00 2
835 Loenatiks 00:00:00 4
836 Brak 00:00:00 4
837 KelDar 00:00:00 4
838 Lovebirds 00:00:00 11
839 Boskampies 00:00:00 11
840 Ninjago 00:00:00 11
841 Pino’s 00:00:00 7
842 Balzak 00:00:00 4
843 Landal 00:00:00 12
844 Strampel 00:00:00 7
845 stevens 00:00:00 6
846 De Rakkers 00:00:00 6
847 Pasenclub2021 00:00:00 9
848 Planet rose 00:00:00 7
849 Duutshoffies 00:00:00 3
850 Swennies 00:00:00 8
851 K3 00:00:00 8
852 De boompjes 00:00:00 12
853 Wellmansjes 00:00:00 12
854 Pijffers 00:00:00 5
855 Stumpers 00:00:00 5
856 Netzogek 00:00:00 8
857 Wietsmokertje 00:00:00 8
858 FamilyM 00:00:00 5
859 Sander en Nienke 00:00:00 10
860 Patatje 00:00:00 2
861 Camping 00:00:00 6
862 Iepies 00:00:00 8
863 De kleine leeuwtjes 00:00:00 8
864 RabbitHillJM 00:00:00 3
865 Varkenssanne 00:00:00 1
866 De kolkies 00:00:00 8
867 Bitches 00:00:00 3
868 Geheime agenten 00:00:00 4
869 Huisje59 00:00:00 2
870 Texeltje 00:00:00 7
871 NiLiMiNiLiMi 00:00:00 10
872 MasterTeam 00:00:00 3
873 Rotterdammers 00:00:00 8
874 Blackies 00:00:00 6
875 James Blond 00:00:00 12
876 Weertjes 00:00:00 5
877 DePosthoeve 00:00:00 4
878 geen leuke familie 00:00:00 4
879 Laajan 00:00:00 8
880 Diagnaze 00:00:00 5
881 Carpenters 00:00:00 8
882 The Boyz 00:00:00 4
883 Family105 00:00:00 5
884 Jaxi 00:00:00 8
885 The Boys 00:00:00 8
886 Eilandjes 00:00:00 6
887 Poortvliet 00:00:00 8
888 BuEen 00:00:00 3
889 De Kramers & Robin 00:00:00 6
890 Lamers225 00:00:00 6
891 knuppels 00:00:00 3
892 De 713-tjes 00:00:00 12
893 Mastopjes 00:00:00 10
894 Klokkie 00:00:00 11
895 FamBijloo 00:00:00 4
896 Wichertjes 00:00:00 0
897 The V-Team 00:00:00 3
898 Mesmetsucces! 00:00:00 6
899 Malle Henkie 00:00:00 4
900 De Brouwertjes 00:00:00 5
901 The Rebbels 00:00:00 3
902 HAJ hkz zld 00:00:00 8
903 De Rielse beulen 00:00:00 9
904 Kasseltjes 00:00:00 11
905 Fam Poortman 00:00:00 2
906 De speurneuzen 00:00:00 5
907 Berend botjes 00:00:00 8
908 Veneklaas 00:00:00 12
909 Christmasteam 00:00:00 6
910 valkjes 00:00:00 10
911 De cocaïne hunters 00:00:00 6
912 Lammerts van Bueren 00:00:00 5
913 Eekhoorn715 00:00:00 5
914 De Joopies 00:00:00 5
915 Kuikentjes 00:00:00 5
916 De bitterballen 00:00:00 3
917 Dijkxhoorn 00:00:00 6
918 Liertjes 00:00:00 11
919 Zaalberg 00:00:00 5
920 Overbeekjes 00:00:00 4
921 Masterluuk 00:00:00 9
922 Kersten 00:00:00 12
923 De Doorentjes 00:00:00 3
924 Nieuwkomers 00:00:00 11
925 De zes van S 00:00:00 12
926 Powerpannenkoeks 00:00:00 11
927 KNALA 00:00:00 5
928 Dupoint 00:00:00 9
929 Team steenuil 00:00:00 5
930 PitoKnerpie 00:00:00 9
931 TijnIse 00:00:00 7
932 Tiellie-Roetie 00:00:00 7
933 Jacobs Struik 00:00:00 12
934 Speklepjes 00:00:00 12
935 De sjippies 00:00:00 4
936 SVEH 00:00:00 3
937 Flikken Zeeland 00:00:00 10
938 Welages 00:00:00 6
939 Jorrie 00:00:00 5
940 Schoutjes 00:00:00 3
941 Vjennekloetn 00:00:00 5
942 Cf 00:00:00 2
943 FamilieGerdes 00:00:00 6
944 Commanders 00:00:00 3
945 Escape de Wit 00:00:00 6
946 Super Zwaap 00:00:00 11
947 De veluwe 00:00:00 6
948 Make that the cat wise 00:00:00 6
949 Fam van de Pavert 00:00:00 8
950 Veenstra klungels 00:00:00 7
951 Het boeit mij niks 00:00:00 6
952 Triest 00:00:00 10
953 De bergjes 00:00:00 11
954 Wijnberg 00:00:00 12
955 De pekelders 00:00:00 10
956 De Kolhekjes 00:00:00 7
957 Nu wel 00:00:00 2
958 Prutsers 00:00:00 0
959 Team Nijenkampies 00:00:00 11
960 FF 00:00:00 0
961 JJ 00:00:00 8
962 De Pioniers 00:00:00 7
963 Schoorl&co 00:00:00 7
964 Svenpapa 00:00:00 9
965 Hart&Koek 00:00:00 9
966 Kampeerders 00:00:00 9
967 NOAD 00:00:00 10
968 Tuinstra 00:00:00 11
969 LTK 00:00:00 4
970 FC Max 00:00:00 6
971 BeersMill 00:00:00 0
972 Walletjes 00:00:00 8
973 De Ruijtenbergies 00:00:00 4
974 310 00:00:00 8
975 Reddingstas 00:00:00 3
976 MirMar 00:00:00 6
977 Boelies 00:00:00 6
978 Klunder 00:00:00 10
979 t'veen 00:00:00 5
980 GoldenGirls_* 00:00:00 2
981 De doedels 00:00:00 5
982 De Witjes 00:00:00 8
983 Broer van dijk 00:00:00 4
984 Verbrugge 00:00:00 9
985 Ties 00:00:00 9
986 Schummi's 00:00:00 6
987 Laserkit 00:00:00 6
988 Casa Kaasje 00:00:00 4
989 Ruessink 00:00:00 8
990 Patjanstantho 00:00:00 11
991 Weuke pankenken 00:00:00 9
992 De Counter Pounters 00:00:00 7
993 Maissan 00:00:00 6
994 Happy familie 00:00:00 2
995 PELLETJES 00:00:00 4
996 TILBO’S 00:00:00 3
997 De Bende van Ellende 00:00:00 8
998 De Haantjes 00:00:00 6
999 WiWiWu 00:00:00 4
1000 070ers 00:00:00 7
1001 Houdini 00:00:00 6
1002 Daphne & Yoran 00:00:00 1
1003 Duo Lijo 00:00:00 10
1004 Janssen 00:00:00 11
1005 Dreistein 00:00:00 4
1006 De Bobi’s 2.0 00:00:00 12
1007 De Roze olifant 00:00:00 9
1008 Lizzy 00:00:00 5
1009 Loopy Lions 00:00:00 0
1010 Dupger 00:00:00 2
1011 Groep 2 00:00:00 0
1012 Janneke en matthijs 00:00:00 5
1013 Peller 00:00:00 5
1014 Scholten 00:00:00 2
1015 fam Kleinjan 00:00:00 4
1016 Polmo 00:00:00 4
1017 De Nozems 00:00:00 11
1018 DeGraaf 00:00:00 4
1019 De baaltjes 00:00:00 10
1020 Stippie en Strepie 00:00:00 6
1021 Wokko&Plonty 00:00:00 8
1022 Kiren 00:00:00 6
1023 Fam.Schellekens 00:00:00 8
1024 Bollo327 00:00:00 12
1025 AapSchaap 00:00:00 9
1026 Fam Deelen 00:00:00 8
1027 de lollypops 00:00:00 5
1028 De chicas 00:00:00 11
1029 Splintertjes 00:00:00 1
1030 Limoenje 00:00:00 9
1031 Molsnollen 00:00:00 5
1032 Van de Gruppies 00:00:00 8
1033 The Big Brains 00:00:00 7
1034 Kloot 00:00:00 8
1035 Carrem 00:00:00 8
1036 Chickenladies 00:00:00 11
1037 de Kleijntjes 00:00:00 5
1038 Nieuwenkampjes 00:00:00 9
1039 Kruijsjes 00:00:00 6
1040 #teamLangedijk 00:00:00 3
1041 lol masters 00:00:00 12
1042 De Drostjes 00:00:00 2
1043 Dijkjes 00:00:00 6
1044 De Oplossers 00:00:00 1
1045 Hero’s 00:00:00 0
1046 Knuf&Co 00:00:00 8
1047 The 8 team 00:00:00 12
1048 EEKHOORN 00:00:00 11
1049 DeMatrozen 00:00:00 2
1050 De Panapadders 00:00:00 3
1051 Brandwel 00:00:00 9
1052 Sennes trots 00:00:00 3
1053 Scheper2.0 00:00:00 8
1054 De Bosmannetjes 00:00:00 5
1055 Kimme Santie 00:00:00 5
1056 Snoepjes 00:00:00 1
1057 The Browns 00:00:00 2
1058 Admiraaltjes 00:00:00 12
1059 Fam. Looij 00:00:00 10
1060 Schootjes 00:00:00 7
1061 Fissa 00:00:00 10
1062 Smeding 00:00:00 11
1063 Offringgons 00:00:00 2
1064 De knallende vijf 00:00:00 11
1065 Foxie Team 00:00:00 6
1066 Hamerslag 00:00:00 9
1067 Martena 00:00:00 6
1068 Fam. Villerius 00:00:00 7
1069 Brinkies 00:00:00 6
1070 De eekhoorns 00:00:00 7
1071 DeOnderkinnen 00:00:00 2
1072 Spruotjes 00:00:00 0
1073 De Jongetjes 00:00:00 8
1074 DDN Hattem 00:00:00 5
1075 De scheetjes 00:00:00 4
1076 50 plus Petra 3-3 00:00:00 12
1077 Lars & Lars 00:00:00 5
1078 Duuk2021 00:00:00 5
1079 De 4 musketiers 00:00:00 10
1080 De Lama's 00:00:00 5
1081 Veerhunters 00:00:00 7
1082 BIKE 00:00:00 7
1083 De terpjes 00:00:00 9
1084 De politiegroep 00:00:00 4
1085 Feniks2 00:00:00 10
1086 Feniks 00:00:00 0
1087 Sander & Kimberley 00:00:00 10
1088 Huisje25 00:00:00 6
1089 Dijksma 00:00:00 12
1090 Bouvies7 00:00:00 7
1091 De Valkjes 00:00:00 1
1092 Vosjes 00:00:00 2
1093 Tenbrinkjes 00:00:00 10
1094 De leeuwtjes 00:00:00 7
1095 Lagemaat35 00:00:00 12
1096 mumimisi 00:00:00 10
1097 Liever te dik in de .... 00:00:00 2
1098 Layla's butlers 00:00:00 7
1099 de Bruijn 00:00:00 8
1100 Floortjes 00:00:00 5
1101 De eekhoorn 00:00:00 10
1102 Dokters Beard 00:00:00 3
1103 Bavianen Wijlens 00:00:00 12
1104 Yvonne&Nienke 00:00:00 6
1105 Schouten 00:00:00 6
1106 Langkawi 00:00:00 0
1107 Johejo 00:00:00 5
1108 SB escape team 00:00:00 4
1109 Veenendaaltjes 00:00:00 2
1110 Vogel 00:00:00 5
1111 Janine+maris 00:00:00 0
1112 DE FRANSWATJES 00:00:00 3
1113 Lensies 00:00:00 2
1114 Reinders 00:00:00 3
1115 Team Rob de Ruiter 00:00:00 5
1116 royco 00:00:00 1
1117 Westerinkjes 00:00:00 4
1118 The Flunx 00:00:00 10
1119 de vandaaltjes 00:00:00 6
1120 Banboekids 00:00:00 8
1121 Brouwer 00:00:00 12
1122 Kokken 00:00:00 12
1123 vandermeeralma 00:00:00 11
1124 Piemels253 00:00:00 8
1125 De reizigers 00:00:00 6
1126 JH 00:00:00 7
1127 Youpyoupyoup 00:00:00 0
1128 IJstaartjes 00:00:00 5
1129 Poeka’s 00:00:00 4
1130 Marcel en Lynn 00:00:00 4
1131 Hoogesteger 00:00:00 10
1132 Hartjes 00:00:00 6
1133 WES&FEM 00:00:00 6
1134 van den Bergjes 00:00:00 9
1135 Billy&Bollie 00:00:00 6
1136 Ynemaatjes 00:00:00 7
1137 De popcorn poppers 00:00:00 5
1138 Prinsjes 00:00:00 12
1139 Werfjes 00:00:00 12
1140 Mat 00:00:00 0
1141 RB&RB 00:00:00 0
1142 Hagels 00:00:00 4
1143 De Bekertjes 00:00:00 4
1144 Abcouwers 00:00:00 7
1145 Huisje77 00:00:00 7
1146 De Chickies 00:00:00 11
1147 Eekhoorntjes 00:00:00 3
1148 Snelle Brauny's 00:00:00 5
1149 Beushuis 00:00:00 0
1150 Viskraam 00:00:00 3
1151 josan 00:00:00 6
1152 Loetje 00:00:00 7
1153 Niet voor de poes 00:00:00 3
1154 BerlicumPernis 00:00:00 4
1155 Boermannetjes 00:00:00 9
1156 Fam. Power 00:00:00 8
1157 Boris BOEFJES 00:00:00 5
1158 Naccers 00:00:00 6
1159 Realna 00:00:00 5
1160 De Escape-aapjes 00:00:00 10
1161 De Gorties! 00:00:00 1
1162 De Pindakaasjes 00:00:00 4
1163 Autoservicekole 00:00:00 6
1164 De Lions 00:00:00 8
1165 Familieoost! 00:00:00 12
1166 OSG 00:00:00 4
1167 TheFamily 00:00:00 11
1168 Sundaymorning 00:00:00 8
1169 Kwizzwizz 00:00:00 1
1170 Team van Muijen 00:00:00 8
1171 Amsterdam West 00:00:00 10
1172 kabouters 00:00:00 10
1173 De Kr@kers 00:00:00 4
1174 Beukenootjes 00:00:00 4
1175 Goldies 00:00:00 5
1176 Eierpower 00:00:00 5
1177 Test 00:00:00 1
1178 Tobies 00:00:00 6
1179 Ritzerflits 00:00:00 6
1180 Bosjes 00:00:00 10
1181 Licky 00:00:00 7
1182 De Glasjes 00:00:00 5
1183 Erbera216 00:00:00 8
1184 ijtjes 00:00:00 2
1185 Het droomteam 00:00:00 10
1186 Oost 00:00:00 12
1187 Boekel//Gols 00:00:00 5
1188 Brownies 00:00:00 12
1189 HOLY TRINITY 00:00:00 9
1190 we laten ons niet kisten! 00:00:00 8
1191 Versteeg bv 00:00:00 10
1192 Korfies 00:00:00 5
1193 Droge worsten 00:00:00 5
1194 Limari 00:00:00 11
1195 Homburg 00:00:00 1
1196 Verbeekjes 00:00:00 11
1197 De Dombo,s 00:00:00 2
1198 Familie van Waes 00:00:00 12
1199 Catering de Groot 00:00:00 3
1200 De Dikketives 00:00:00 8
1201 Luuk pro 00:00:00 6
1202 brisa 00:00:00 12
1203 Maasdammertjes 00:00:00 9
1204 222 00:00:00 8
1205 koppelhoentje 00:00:00 11
1206 Bende van Ellende 00:00:00 9
1207 Molletjes 00:00:00 0
1208 Jansen 00:00:00 4
1209 Mysterie W51 00:00:00 7
1210 Ouderkerkjes 00:00:00 9
1211 Zeewolde 00:00:00 3
1212 Denkers 00:00:00 2
1213 Jimmy 00:00:00 6
1214 De geheimzinnige club 00:00:00 4
1215 KAAS 00:00:00 4
1216 Sukkels 00:00:00 7
1217 Vasco 00:00:00 5
1218 The Bugs 00:00:00 8
1219 Fredjes 00:00:00 8
1220 de Kuikentjes 00:00:00 6
1221 Harem 00:00:00 5
1222 Camping tokkies 00:00:00 12
1223 Animatie team Kuierpad 2021 00:00:00 2
1224 Hatseflats 00:00:00 12
1225 De gompies 00:00:00 11
1226 Zeeuwtjes 00:00:00 9
1227 Flipsen 00:00:00 6
1228 Roggeveenstreetjes 00:00:00 9
1229 Klos 00:00:00 8
1230 Hhw072 00:00:00 7
1231 Siek & Krul 00:00:00 4
1232 zwijnen 00:00:00 3
1233 FIOD 00:00:00 4
1234 Lonzo 00:00:00 4
1235 Half seuvm 00:00:00 4
1236 JarigeJoost 00:00:00 1
1237 De onesies 00:00:00 10
1238 Friesland 00:00:00 6
1239 De douane 00:00:00 10
1240 Malden's Hoop 00:00:00 6
1241 Yin14jaar 00:00:00 8
1242 Boel 00:00:00 9
1243 VdH 00:00:00 10
1244 De Kort Kanjers 00:00:00 4
1245 Codekrakers 00:00:00 10
1246 Stello 00:00:00 12
1247 515 JACUZZIHOUSE 00:00:00 8
1248 Tedd 00:00:00 4
1249 Brem 00:00:00 10
1250 Plusjes 00:00:00 9
1251 Team escape BRS 00:00:00 10
1252 Boyoos 00:00:00 5
1253 Souren 00:00:00 6
1254 Kalka 00:00:00 11
1255 Kistslopers 00:00:00 6
1256 Utnaaiers en utbukers 00:00:00 8
1257 De Buurtjes 00:00:00 3
1258 De Gerdaas 00:00:00 4
1259 wilbie 00:00:00 8
1260 FAM VD KOLK 00:00:00 4
1261 De brunies 00:00:00 4
1262 Grootenleeuw 00:00:00 9
1263 MaLiNyJo 00:00:00 8
1264 De dijkjes 00:00:00 11
1265 Remco en Esther 00:00:00 12
1266 De Hermansjes 00:00:00 7
1267 Hoogeveen 00:00:00 5
1268 Die DELLER-Kids 00:00:00 6
1269 De pilspiraten 00:00:00 5
1270 Postma 00:00:00 12
1271 FreePuck 00:00:00 5
1272 Voorentjes 00:00:00 2
1273 De Kroontjes 00:00:00 12
1274 Jonkman 00:00:00 11
1275 Baldadige hennies 00:00:00 9
1276 Klutertjes 00:00:00 7
1277 De pernukkels 00:00:00 10
1278 Heusies 00:00:00 12
1279 Veltkamp 00:00:00 11
1280 Club Lindenburg 00:00:00 4
1281 Brookovich 00:00:00 12
1282 Yuki 00:00:00 4
1283 Genieters 00:00:00 5
1284 Wetserparkduifjes 00:00:00 0
1285 Peeterskes 00:00:00 3
1286 Gerrit & Kim 00:00:00 8
1287 DeMulders 00:00:00 11
1288 De elsbeek 00:00:00 10
1289 Smitne 00:00:00 4
1290 van Houtjes 821 00:00:00 4
1291 Marencis 00:00:00 8
1292 Hokkies 00:00:00 2
1293 Aardbei 00:00:00 4
1294 Amsterdam gang 00:00:00 8
1295 FEMELIE-H 00:00:00 8
1296 Uil 00:00:00 10
1297 Dekkertjes 00:00:00 10
1298 Boersmaatjes 00:00:00 12
1299 Nijsingh 00:00:00 7
1300 Appeltje biertje 00:00:00 12
1301 NOAH 00:00:00 11
1302 Kolibri 00:00:00 8
1303 Moleman 00:00:00 5
1304 Enweerdoor 00:00:00 6
1305 Henkies 00:00:00 7
1306 3 Musketiers 00:00:00 11
1307 Wappies 00:00:00 2
1308 Pluusjes01 00:00:00 12
1309 Vlotte mwannen 00:00:00 4
1310 DORGST! 00:00:00 9
1311 Halfje Wit 00:00:00 8
1312 Bryan 00:00:00 2
1313 De Bundy's 00:00:00 8
1314 Tafka282 00:00:00 3
1315 Snelle janne 00:00:00 4
1316 De groene koetjes 00:00:00 12
1317 JoLaMiMa 00:00:00 3
1318 Cageman 00:00:00 12
1319 De aardappels 00:00:00 12
1320 AVLK 00:00:00 2
1321 Bijna slim 00:00:00 1
1322 Tokkies uit Monnickendam 00:00:00 12
1323 Hunters 00:00:00 12
1324 ramona 00:00:00 12
1325 De Wappies 00:00:00 5
1326 Unglaublich 00:00:00 11
1327 De Nachtegaaltjes 00:00:00 2
1328 kollies 00:00:00 1
1329 Noukies 00:00:00 8
1330 De 3 musketiers 00:00:00 7
1331 Kiekieks 00:00:00 2
1332 qwerty 00:00:00 4
1333 Vosco 00:00:00 5
1334 SnelMil 00:00:00 5
1335 Noorderboertjes 00:00:00 5
1336 TeamKreutzer 00:00:00 3
1337 The harbor detectives 00:00:00 8
1338 Vliegende mossels 00:00:00 1
1339 Cheesypop 00:00:00 4
1340 De hoekschewaarders 00:00:00 5
1341 Kill the piñata 00:00:00 6